KUIPER-00031 (63744 NORAD) Tracking and Keplerian Element Data

This shows tracking and keplerian element data for the satellite.

Feedback or suggestion? Click here.




ElementValue
Catalog63744
NameKUIPER-00031
Epoch Orbit3573
Epoch Day353.97353784
Epoch Year2025
RAAN89.1153
Inclination51.9012
Eccentricity0.0003459
Argument of Perigee201.2127
Mean Anonmoly158.8692
Mean Motion14.79929401
Decay Rate6.843E-05
L11 63744U 25088W 25353.97353784 .00006843 00000+0 92586-3 0 9994
L22 63744 51.9012 89.1153 0003459 201.2127 158.8692 14.79929401 35730



Live tracking and technical data element details for KUIPER-00031 (NORAD 63744). KUIPER-00031 can be tracked NOW for your location showing map with azimuth and elevation plus other details from your city location.







IsCatalogInMostPopularTable: catalog: 63744, numindb: 3
Update: records affected: 1



GetName: 63744 KUIPER-00031

Hit Count: updated at: Mon, 20 Apr 2026 09:16:38 GMT